FENGYUN 1C DEB, 30267

Orbit data source: Space-Track

FENGYUN 1C DEB, 30267 is space debris in SSO originally from a launch on Mon, 10 May 1999 UTC launched from the Taiyaun Space Center, China (TSC). Fengyun 1C debris stems from the Chinese weather satellite Fengyun-1C, which was intentionally destroyed by a Chinese anti-satellite missile in 2007. This event dramatically increased the amount of space debris, with thousands of trackable fragments posing hazards to satellites and human spaceflight. The Fengyun 1C debris cloud has become a focal point in discussions about space sustainability and the need for international regulations to prevent the creation of new debris.

Loading next visibility...
Identifier
30267, 1999-025YC
Orbit
SSO
Country
Flag of CNCN / PRC
Related business
Manufacturer
Unknown
Mission
Spacecraft
Bus & Motor
Unknown
Mass
Unknown
Launch date (UTC)
1999-05-10 (27 years ago)
Launch vehicle
Unknown
Launch site
Taiyaun Space Center, China (TSC)
Object type
Payload
Rocket body
Debris
Shape & HBR
Unknown shape, 0.1 m
Radar Cross Section
Medium (>0.1 m² and <1 m²)

Expand to show TLE details & history
Last TLE update: 9 hours ago

TLE from 9 hours ago
0 FENGYUN 1C DEB
1 30267U 99025YC  26208.18046302  .00002245  00000-0  96420-3 0  9992
2 30267  98.8383 285.7673 0055241 310.2802  49.3554 14.24950265  5171
Epoch: 2026-07-27T04:19Z
TLE epoch observation values (Epoch: 2026-07-27T04:19:52.004Z)
Latitude
-0.00011°
Longitude
-84.0671°
Altitude
785.839 km
Speed
7.474 km/s
True Right ascension
19h 03m 04s
True Declination
0° 00' 00"
Sunlit
Object was in full shadow at epoch
Visualization orbit readout
Latitude
Unknown
Longitude
Unknown
Altitude
Unknown
Speed
Unknown
Apparent Right ascension
Unknown
Apparent Declination
Unknown
Sunlit
N/A
Visualization observer readout
Local Sidereal Time
03:01:00
Azimuth
Unknown
Elevation
Unknown
Doppler factor
Unknown
Orbital elements
Apogee altitude
845.503 km
Perigee altitude
766.133 km
Semi-major axis
7,183.955 km
Eccentricity
0.00552
Inclination
98.8383°
RAAN
285.7673°
Arg. of periapsis
310.2802°
True anomaly
49.83787°
Mean anomaly
49.3554°
Eccentric anomaly
49.59642°
Mean motion
3.56449 °/min
Orbital period
101 mins
BSTAR
0.0009642
Loading maneuver chart data...
Computing Atmospheric mass density...
Loading historical data...
Loading historical data...
Loading historical data...
Loading historical data...
Loading historical data...
Loading historical data...
Loading historical data...

Documentation

Showing up to 5 results
|